(100958) = 1998 QD12 = 2000 DA32

Discovered at Socorro on 1998-08-17 by LINEAR.

Orbit

Orbit type: Main Belt

Note: WebGL enabled browser required.

epoch2024-03-31.0
epoch JD2460400.5
perihelion date2023-01-09.90808
perihelion JD2459954.40808
argument of perihelion (°)194.85587
ascending node (°)178.85848
inclination (°)6.41685
eccentricity0.1814440
perihelion distance (AU)1.8636158
Tisserand w.r.t. Jupiter3.6
ΔV w.r.t. Earth (km/sec)8.7
semimajor axis (AU)2.2767113
mean anomaly (°)127.98712
mean daily motion (°/day)0.28690750
aphelion distance (AU)2.690
period (years)3.44
P-vector [x]0.97145775
P-vector [y]0.22744268
P-vector [z]0.06737705
Q-vector [x]-0.23720220
Q-vector [y]0.92873975
Q-vector [z]0.28491681
absolute magnitude16.36
phase slope0.15
uncertainty0
referenceMPEC 2024-E73
observations used968
oppositions16
arc length (days)9332
first opposition used1998
last opposition used2024
residual rms (arc-secs)0.63
perturbers coarse indicatorM-v
perturbers precise indicator003Ek
first observation date used1998-08-17.0
last observation date used2024-03-05.0
computer nameMPCLINUX
JD of orbit computation2456937.277537
perihelion JD uncertainty (days)3.0439E-05
argument of perihelion uncertainty (°)2.4098E-05
ascending node uncertainty (°)2.2615E-05
inclination uncertainty (°)5.2325E-06
eccentricity uncertainty 5.3174E-08
perihelion distance uncertainty (AU)1.1777E-07
Minimum Orbit Intersection Distances (in AU)
for orbit epoch: 2460400.5, reference: E2024-E73
Mercury1.51325
Venus1.13834
Earth0.86469
Mars0.4494
Jupiter2.76359
Saturn6.73869
Uranus15.7886
Neptune27.8673

Observations

986 total observations over interval: 1998 08 17.24785 – 2024 03 05.197848
These data are available for download (format description).

Date (UT) J2000 RA J2000 Dec Magn Location Ref
1998 08 17.24785 21 28 51.77 -06 45 43.8 19.2   704 – Lincoln Laboratory ETS, New Mexico MPS 1995
1998 08 17.26875 21 28 50.64 -06 45 57.3 18.9   704 – Lincoln Laboratory ETS, New Mexico MPS 1995
1998 08 17.28973 21 28 49.55 -06 46 07.0 18.9   704 – Lincoln Laboratory ETS, New Mexico MPS 1995
1998 08 17.33165 21 28 46.92 -06 46 27.7 19.0   704 – Lincoln Laboratory ETS, New Mexico MPS 1995
1998 08 23.28470 21 23 49.10 -07 38 34.3 19.0 R 699 – Lowell Observatory-LONEOS MPS 1995
1998 08 23.28728 21 23 48.91 -07 38 38.1 18.8   704 – Lincoln Laboratory ETS, New Mexico MPS 1995
1998 08 23.29935 21 23 48.30 -07 38 42.6 18.8   704 – Lincoln Laboratory ETS, New Mexico MPS 1995
1998 08 23.30456 21 23 48.15 -07 38 44.7   699 – Lowell Observatory-LONEOS MPS 1995
1998 08 23.32358 21 23 47.07 -07 38 55.9 19.0   704 – Lincoln Laboratory ETS, New Mexico MPS 1995
1998 08 23.32443 21 23 47.04 -07 38 56.8   699 – Lowell Observatory-LONEOS MPS 1995
1998 08 23.33553 21 23 46.44 -07 39 01.7 19.0   704 – Lincoln Laboratory ETS, New Mexico MPS 1995
1998 08 28.26168 21 19 57.08 -08 23 42.0 18.9 R 699 – Lowell Observatory-LONEOS MPS 1995
1998 08 28.27163 21 19 56.73 -08 23 48.1   699 – Lowell Observatory-LONEOS MPS 1995
1998 08 28.28157 21 19 56.16 -08 23 52.2   699 – Lowell Observatory-LONEOS MPS 1995
2000 02 29.20854 10 01 30.95 +07 20 01.4 19.8   704 – Lincoln Laboratory ETS, New Mexico MPS 11187
2000 02 29.22192 10 01 30.17 +07 20 08.0 18.9   704 – Lincoln Laboratory ETS, New Mexico MPS 11187
2000 02 29.23530 10 01 29.35 +07 20 13.6 19.6   704 – Lincoln Laboratory ETS, New Mexico MPS 11187
2000 03 03.19260 09 58 49.80 +07 43 18.0 19.7   704 – Lincoln Laboratory ETS, New Mexico MPS 11187
2000 03 03.20588 09 58 49.00 +07 43 25.4 19.5   704 – Lincoln Laboratory ETS, New Mexico MPS 11187
2000 03 03.21915 09 58 48.27 +07 43 31.9 19.7   704 – Lincoln Laboratory ETS, New Mexico MPS 11187
2000 03 03.23241 09 58 47.56 +07 43 37.8 19.6   704 – Lincoln Laboratory ETS, New Mexico MPS 11187
2000 03 03.24566 09 58 46.81 +07 43 44.5 20.1   704 – Lincoln Laboratory ETS, New Mexico MPS 11187
2000 04 24.16013 09 44 52.63 +11 34 17.1 21.9 V 691 – Steward Observatory, Kitt Peak-Spacewatch MPS 13525
2000 04 24.18914 09 44 53.31 +11 34 18.4 21.5 V 691 – Steward Observatory, Kitt Peak-Spacewatch MPS 13525
2000 04 24.21851 09 44 53.99 +11 34 19.3 21.4 V 691 – Steward Observatory, Kitt Peak-Spacewatch MPS 13525
2001 06 12.42543 16 33 55.49 -11 19 40.5 20.5   608 – Haleakala-AMOS MPS 31563
2001 06 12.43561 16 33 54.87 -11 19 39.2 20.3   608 – Haleakala-AMOS MPS 31563
2001 06 12.44607 16 33 54.20 -11 19 38.0 20.4   608 – Haleakala-AMOS MPS 31563
2002 12 14.30681 06 31 06.61 +11 30 14.6 18.9   704 – Lincoln Laboratory ETS, New Mexico MPS 140907
2002 12 14.32220 06 31 05.56 +11 30 14.8 18.8   704 – Lincoln Laboratory ETS, New Mexico MPS 140907
2002 12 14.33759 06 31 04.56 +11 30 13.8 19.3   704 – Lincoln Laboratory ETS, New Mexico MPS 140907
2002 12 14.35311 06 31 03.58 +11 30 13.8 19.4   704 – Lincoln Laboratory ETS, New Mexico MPS 140907
2002 12 14.36850 06 31 02.58 +11 30 13.6 19.2   704 – Lincoln Laboratory ETS, New Mexico MPS 140907
2003 01 05.24307 06 07 23.28 +11 58 02.4 18.2   704 – Lincoln Laboratory ETS, New Mexico MPS 140907
2003 01 05.25820 06 07 22.39 +11 58 04.2 19.7   704 – Lincoln Laboratory ETS, New Mexico MPS 140907
2003 01 05.27452 06 07 21.40 +11 58 07.2 19.4   704 – Lincoln Laboratory ETS, New Mexico MPS 140907
2003 01 05.28968 06 07 20.37 +11 58 10.4 18.9   704 – Lincoln Laboratory ETS, New Mexico MPS 140907
2003 01 05.30481 06 07 19.45 +11 58 13.0 18.8   704 – Lincoln Laboratory ETS, New Mexico MPS 140907
2003 02 02.17601 05 50 31.37 +13 48 01.9 19.3   704 – Lincoln Laboratory ETS, New Mexico MPS 140907
2003 02 02.19146 05 50 31.28 +13 48 06.0 19.2   704 – Lincoln Laboratory ETS, New Mexico MPS 140907
2003 02 02.20691 05 50 31.04 +13 48 09.9 19.0   704 – Lincoln Laboratory ETS, New Mexico MPS 140907
2005 08 26.35587 23 45 47.47 +01 58 13.3 17.9 R 699 – Lowell Observatory-LONEOS MPS 139546
2005 08 26.37428 23 45 46.93 +01 58 05.1   699 – Lowell Observatory-LONEOS MPS 139546
2005 08 26.39267 23 45 46.40 +01 57 56.5   699 – Lowell Observatory-LONEOS MPS 139546
2005 08 26.41104 23 45 45.87 +01 57 48.4   699 – Lowell Observatory-LONEOS MPS 139546
2005 08 26.49470 23 45 43.93 +01 57 11.9 19.6   608 – Haleakala-AMOS MPS 139546
2005 08 26.50517 23 45 43.61 +01 57 07.2 20.1   608 – Haleakala-AMOS MPS 139546
2005 08 26.51600 23 45 43.29 +01 57 02.8 19.2   608 – Haleakala-AMOS MPS 139546
2005 08 27.43440 23 45 19.83 +01 49 57.5 17.9   644 – Palomar Mountain/NEAT MPS 139985
2005 08 27.45720 23 45 19.14 +01 49 46.9 18.0   644 – Palomar Mountain/NEAT MPS 139985
2005 08 27.47974 23 45 18.49 +01 49 36.2 18.4   644 – Palomar Mountain/NEAT MPS 139985
2005 08 29.32181 23 44 27.90 +01 34 45.4 17.9 R 699 – Lowell Observatory-LONEOS MPS 139985
2005 08 29.34005 23 44 27.33 +01 34 36.3   699 – Lowell Observatory-LONEOS MPS 139985
2005 08 29.35832 23 44 26.76 +01 34 27.0   699 – Lowell Observatory-LONEOS MPS 139985
2005 08 29.37655 23 44 26.13 +01 34 18.0   699 – Lowell Observatory-LONEOS MPS 139985
2005 09 03.293167 23 41 47.011 +00 50 32.70 18.34 V 645 – Apache Point-Sloan Digital Sky Survey MPS 389795
2005 09 03.296639 23 41 46.871 +00 50 30.66 19.05   645 – Apache Point-Sloan Digital Sky Survey MPS 389795
2005 09 06.19408 23 40 00.16 +00 22 17.6 17.7 R 699 – Lowell Observatory-LONEOS MPS 140907
2005 09 06.21583 23 39 59.26 +00 22 04.7   699 – Lowell Observatory-LONEOS MPS 140907
2005 09 06.23761 23 39 58.33 +00 21 51.8   699 – Lowell Observatory-LONEOS MPS 140907
2005 09 06.25933 23 39 57.49 +00 21 38.5   699 – Lowell Observatory-LONEOS MPS 140907
2005 09 06.29109 23 39 56.10 +00 21 19.4 17.0   704 – Lincoln Laboratory ETS, New Mexico MPS 140907
2005 09 06.30224 23 39 55.64 +00 21 12.5 17.7   704 – Lincoln Laboratory ETS, New Mexico MPS 140907
2005 09 06.31338 23 39 55.17 +00 21 05.9 17.6   704 – Lincoln Laboratory ETS, New Mexico MPS 140907
2005 09 06.32465 23 39 54.71 +00 20 59.2 17.5   704 – Lincoln Laboratory ETS, New Mexico MPS 140907
2005 09 06.33579 23 39 54.22 +00 20 52.1 18.0   704 – Lincoln Laboratory ETS, New Mexico MPS 140907
2005 09 08.25601 23 38 39.14 +00 01 18.1 17.7   704 – Lincoln Laboratory ETS, New Mexico MPS 140907
2005 09 08.26723 23 38 38.67 +00 01 10.6 18.2   704 – Lincoln Laboratory ETS, New Mexico MPS 140907
2005 09 08.27851 23 38 38.16 +00 01 04.0 18.3   704 – Lincoln Laboratory ETS, New Mexico MPS 140907
2005 09 08.29021 23 38 37.67 +00 00 56.5 18.7   704 – Lincoln Laboratory ETS, New Mexico MPS 140907
2005 09 08.30139 23 38 37.15 +00 00 49.7 18.4   704 – Lincoln Laboratory ETS, New Mexico MPS 140907
2005 09 13.265027 23 35 11.628 -00 52 00.26 17.63 V 645 – Apache Point-Sloan Digital Sky Survey MPS 389795
2005 09 13.268499 23 35 11.467 -00 52 02.56 18.39   645 – Apache Point-Sloan Digital Sky Survey MPS 389795
2005 09 13.30985 23 35 09.60 -00 52 29.6 18.1 V 691 – Steward Observatory, Kitt Peak-Spacewatch MPS 141551
2005 09 13.33065 23 35 08.67 -00 52 42.8 17.7 V 691 – Steward Observatory, Kitt Peak-Spacewatch MPS 141551
2005 09 13.34858 23 35 07.85 -00 52 54.6 17.7 V 691 – Steward Observatory, Kitt Peak-Spacewatch MPS 141551
2005 09 23.23668 23 28 10.09 -02 41 49.1 17.8 V 703 – Catalina Sky Survey MPS 142153
2005 09 23.24311 23 28 09.69 -02 41 53.1 17.6 V 703 – Catalina Sky Survey MPS 142153
2005 09 23.24957 23 28 09.51 -02 41 56.1 17.6 V 703 – Catalina Sky Survey MPS 142153
2005 09 23.25602 23 28 09.26 -02 41 59.9 17.6 V 703 – Catalina Sky Survey MPS 142153
2005 09 23.31688 23 28 06.58 -02 42 40.8 17.3 R 699 – Lowell Observatory-LONEOS MPS 142153
2005 09 23.34438 23 28 05.38 -02 42 59.2   699 – Lowell Observatory-LONEOS MPS 142153
2005 09 23.37190 23 28 04.19 -02 43 16.7   699 – Lowell Observatory-LONEOS MPS 142153
2005 09 28.18836 23 24 58.48 -03 34 33.2 18.0 R 644 – Palomar Mountain/NEAT MPS 142424
2005 09 28.21001 23 24 57.62 -03 34 46.6 17.6 R 644 – Palomar Mountain/NEAT MPS 142424
2005 09 28.23363 23 24 56.67 -03 35 01.5 17.6 R 644 – Palomar Mountain/NEAT MPS 142424
2005 09 29.19009 23 24 22.40 -03 44 51.0 17.5 R 699 – Lowell Observatory-LONEOS MPS 142424
